MONITOR-4 (RS57S)

Last updated on Mon Sep 21 2026 00:03:14 GMT+0000 (Coordinated Universal Time)

1 57182U 23091S 26263.60886695 .00007517 00000+0 26440-3 0 9993 2 57182 97.4981 327.7944 0012484 120.1729 240.0749 15.29571808178873
UTC large
Height (km)
Speed (km/s)
/
Latitude / Longitude
Inclination (degrees)
Orbital Period (minutes)
Azimuth
Elevation
Range (km)
Doppler Factor

Next 0 passes for location: London (51.5072 / 0.1276)

No passes found over London.
MONITOR-4 (RS57S)